Indianapolis Executive (TYQ)

 

Airport Diagram
No Airport Diagram Available
Current Weather/Forecast (VFR Conditions)
METAR KTYQ 071335Z AUTO 24008KT 10SM CLR 09/03 A3005 RMK AO2 T00910032
TAF

Airport Information

All Charts
General
Chart Name View
TAKEOFF MINIMUMS
ALTERNATE MINIMUMS

Departures
Chart Name Download
DAWNN ONE
DAWNN ONE, CONT.1
HOOSIER FIVE
MAREO FIVE
MEARZ SIX
ROCKY ONE

Arrivals
Chart Name Download
RACYR FIVE

Approaches
Chart Name Download
ILS OR LOC RWY 36
RNAV (GPS) RWY 18
RNAV (GPS) RWY 36
VOR RWY 18


Airport Statistics
Departures Arrivals Local
All Collected Stats since June 2016: 165 123 5
2021 Stats: 42 32 1
May Stats: 3 0 0

Inbound Traffic (Arrivals) - 0

No inbound traffic.


Outbound Traffic (Departures) - 0

No outbound traffic.


Local Traffic (Pattern) - 0

No local traffic.